Time,TemperatureF,DewpointF,PressureIn,WindDirection,WindDirectionDegrees,WindSpeedMPH,WindSpeedGustMPH,Humidity,HourlyPrecipIn,Conditions,Clouds,dailyrainin,SoftwareType,DateUTC
2013-02-12 00:11:00,4.0,0.0,-100.00,ENE,62,0.0,1.0,84,0.00,,,0.00,,2013-02-12 07:11:00,
2013-02-12 00:21:00,4.0,0.0,-100.00,ENE,62,0.0,1.0,84,0.00,,,0.00,,2013-02-12 07:21:00,
2013-02-12 00:31:00,4.0,0.0,-100.00,ENE,62,0.0,1.0,84,0.00,,,0.00,,2013-02-12 07:31:00,
2013-02-12 00:41:00,4.0,0.0,-100.00,ENE,62,0.0,1.0,84,0.00,,,0.00,,2013-02-12 07:41:00,
2013-02-12 00:51:00,4.0,0.0,-100.00,ENE,62,0.0,1.0,84,0.00,,,0.00,,2013-02-12 07:51:00,
2013-02-12 01:11:00,6.0,2.0,-100.00,WNW,301,1.0,1.0,83,0.00,,,0.00,,2013-02-12 08:11:00,
2013-02-12 01:21:00,6.0,2.0,-100.00,WNW,301,1.0,1.0,83,0.00,,,0.00,,2013-02-12 08:21:00,
2013-02-12 01:31:00,6.0,2.0,-100.00,WNW,301,1.0,1.0,83,0.00,,,0.00,,2013-02-12 08:31:00,
2013-02-12 01:41:00,6.0,2.0,-100.00,WNW,301,1.0,1.0,83,0.00,,,0.00,,2013-02-12 08:41:00,
2013-02-12 01:52:00,6.0,2.0,-100.00,WNW,301,1.0,1.0,83,0.00,,,0.00,,2013-02-12 08:52:00,
2013-02-12 02:11:00,7.0,2.0,-100.00,NW,311,1.0,2.0,81,0.00,,,0.00,,2013-02-12 09:11:00,
2013-02-12 02:21:00,7.0,2.0,-100.00,NW,311,1.0,2.0,81,0.00,,,0.00,,2013-02-12 09:21:00,
2013-02-12 02:31:00,7.0,2.0,-100.00,NW,311,1.0,2.0,81,0.00,,,0.00,,2013-02-12 09:31:00,
2013-02-12 02:41:00,7.0,2.0,-100.00,NW,311,1.0,2.0,81,0.00,,,0.00,,2013-02-12 09:41:00,
2013-02-12 02:51:00,7.0,2.0,-100.00,NW,311,1.0,2.0,81,0.00,,,0.00,,2013-02-12 09:51:00,
2013-02-12 03:11:00,7.0,3.0,-100.00,WNW,303,0.0,1.0,81,0.00,,,0.00,,2013-02-12 10:11:00,
2013-02-12 03:21:00,7.0,3.0,-100.00,WNW,303,0.0,1.0,81,0.00,,,0.00,,2013-02-12 10:21:00,
2013-02-12 03:31:00,7.0,3.0,-100.00,WNW,303,0.0,1.0,81,0.00,,,0.00,,2013-02-12 10:31:00,
2013-02-12 03:43:00,7.0,3.0,-100.00,WNW,303,0.0,1.0,81,0.00,,,0.00,,2013-02-12 10:43:00,
2013-02-12 03:51:00,7.0,3.0,-100.00,WNW,303,0.0,1.0,81,0.00,,,0.00,,2013-02-12 10:51:00,
2013-02-12 04:11:00,9.0,4.0,-100.00,SW,228,1.0,1.0,82,0.00,,,0.00,,2013-02-12 11:11:00,
2013-02-12 04:21:00,9.0,4.0,-100.00,SW,228,1.0,1.0,82,0.00,,,0.00,,2013-02-12 11:21:00,
2013-02-12 04:31:00,9.0,4.0,-100.00,SW,228,1.0,1.0,82,0.00,,,0.00,,2013-02-12 11:31:00,
2013-02-12 04:41:00,9.0,4.0,-100.00,SW,228,1.0,1.0,82,0.00,,,0.00,,2013-02-12 11:41:00,
2013-02-12 04:52:00,9.0,4.0,-100.00,SW,228,1.0,1.0,82,0.00,,,0.00,,2013-02-12 11:52:00,
2013-02-12 05:11:00,9.0,5.0,-100.00,WNW,286,0.0,1.0,83,0.00,,,0.00,,2013-02-12 12:11:00,
2013-02-12 05:21:00,9.0,5.0,-100.00,WNW,286,0.0,1.0,83,0.00,,,0.00,,2013-02-12 12:21:00,
2013-02-12 05:32:00,9.0,5.0,-100.00,WNW,286,0.0,1.0,83,0.00,,,0.00,,2013-02-12 12:32:00,
2013-02-12 05:42:00,9.0,5.0,-100.00,WNW,286,0.0,1.0,83,0.00,,,0.00,,2013-02-12 12:42:00,
2013-02-12 05:52:00,9.0,5.0,-100.00,WNW,286,0.0,1.0,83,0.00,,,0.00,,2013-02-12 12:52:00,
2013-02-12 06:11:00,9.0,5.0,-100.00,SE,142,0.0,1.0,82,0.00,,,0.00,,2013-02-12 13:11:00,
2013-02-12 06:22:00,9.0,5.0,-100.00,SE,142,0.0,1.0,82,0.00,,,0.00,,2013-02-12 13:22:00,
2013-02-12 06:31:00,9.0,5.0,-100.00,SE,142,0.0,1.0,82,0.00,,,0.00,,2013-02-12 13:31:00,
2013-02-12 06:42:00,9.0,5.0,-100.00,SE,142,0.0,1.0,82,0.00,,,0.00,,2013-02-12 13:42:00,
2013-02-12 06:51:00,9.0,5.0,-100.00,SE,142,0.0,1.0,82,0.00,,,0.00,,2013-02-12 13:51:00,
2013-02-12 07:11:00,10.0,6.0,-100.00,SSE,151,1.0,4.0,82,0.00,,,0.00,,2013-02-12 14:11:00,
2013-02-12 07:21:00,10.0,6.0,-100.00,SSE,151,1.0,4.0,82,0.00,,,0.00,,2013-02-12 14:21:00,
2013-02-12 07:31:00,10.0,6.0,-100.00,SSE,151,1.0,4.0,82,0.00,,,0.00,,2013-02-12 14:31:00,
2013-02-12 07:41:00,10.0,6.0,-100.00,SSE,151,1.0,4.0,82,0.00,,,0.00,,2013-02-12 14:41:00,
2013-02-12 07:52:00,10.0,6.0,-100.00,SSE,151,1.0,4.0,82,0.00,,,0.00,,2013-02-12 14:52:00,
2013-02-12 08:11:00,11.0,6.0,-100.00,ESE,115,0.0,1.0,81,0.00,,,0.00,,2013-02-12 15:11:00,
2013-02-12 08:21:00,11.0,6.0,-100.00,ESE,115,0.0,1.0,81,0.00,,,0.00,,2013-02-12 15:21:00,
2013-02-12 08:32:00,11.0,6.0,-100.00,ESE,115,0.0,1.0,81,0.00,,,0.00,,2013-02-12 15:32:00,
2013-02-12 08:41:00,11.0,6.0,-100.00,ESE,115,0.0,1.0,81,0.00,,,0.00,,2013-02-12 15:41:00,
2013-02-12 08:52:00,11.0,6.0,-100.00,ESE,115,0.0,1.0,81,0.00,,,0.00,,2013-02-12 15:52:00,
2013-02-12 09:22:00,11.0,7.0,-100.00,SSE,159,1.0,1.0,80,0.00,,,0.00,,2013-02-12 16:22:00,
2013-02-12 09:31:00,11.0,7.0,-100.00,SSE,159,1.0,1.0,80,0.00,,,0.00,,2013-02-12 16:31:00,
2013-02-12 09:41:00,11.0,7.0,-100.00,SSE,159,1.0,1.0,80,0.00,,,0.00,,2013-02-12 16:41:00,
2013-02-12 09:51:00,11.0,7.0,-100.00,SSE,159,1.0,1.0,80,0.00,,,0.00,,2013-02-12 16:51:00,
2013-02-12 10:11:00,17.0,9.0,-100.00,NW,307,1.0,2.0,70,0.00,,,-99.99,,2013-02-12 17:11:00,
2013-02-12 10:21:00,17.0,9.0,-100.00,NW,307,1.0,2.0,70,0.00,,,-99.99,,2013-02-12 17:21:00,
2013-02-12 10:31:00,17.0,9.0,-100.00,NW,307,1.0,2.0,70,0.00,,,-99.99,,2013-02-12 17:31:00,
2013-02-12 10:41:00,17.0,9.0,-100.00,NW,307,1.0,2.0,70,0.00,,,-99.99,,2013-02-12 17:41:00,
2013-02-12 10:52:00,17.0,9.0,-100.00,NW,307,1.0,2.0,70,0.00,,,-99.99,,2013-02-12 17:52:00,
2013-02-12 11:11:00,19.0,12.0,-100.00,SSW,204,4.0,6.0,74,0.00,,,0.00,,2013-02-12 18:11:00,
2013-02-12 11:22:00,19.0,12.0,-100.00,SSW,204,4.0,6.0,74,0.00,,,0.00,,2013-02-12 18:22:00,
2013-02-12 11:31:00,19.0,12.0,-100.00,SSW,204,4.0,6.0,74,0.00,,,0.00,,2013-02-12 18:31:00,
2013-02-12 11:41:00,19.0,12.0,-100.00,SSW,204,4.0,6.0,74,0.00,,,0.00,,2013-02-12 18:41:00,
2013-02-12 11:51:00,19.0,12.0,-100.00,SSW,204,4.0,6.0,74,0.00,,,0.00,,2013-02-12 18:51:00,
2013-02-12 12:11:00,21.0,13.0,-100.00,SSW,211,5.0,8.0,72,0.00,,,0.00,,2013-02-12 19:11:00,
2013-02-12 12:21:00,21.0,13.0,-100.00,SSW,211,5.0,8.0,72,0.00,,,0.00,,2013-02-12 19:21:00,
2013-02-12 12:31:00,21.0,13.0,-100.00,SSW,211,5.0,8.0,72,0.00,,,0.00,,2013-02-12 19:31:00,
2013-02-12 12:41:00,21.0,13.0,-100.00,SSW,211,5.0,8.0,72,0.00,,,0.00,,2013-02-12 19:41:00,
2013-02-12 12:51:00,21.0,13.0,-100.00,SSW,211,5.0,8.0,72,0.00,,,0.00,,2013-02-12 19:51:00,
2013-02-12 13:11:00,22.0,15.0,-100.00,SW,224,8.0,13.0,73,0.00,,,0.00,,2013-02-12 20:11:00,
2013-02-12 13:21:00,22.0,15.0,-100.00,SW,224,8.0,13.0,73,0.00,,,0.00,,2013-02-12 20:21:00,
2013-02-12 13:31:00,22.0,15.0,-100.00,SW,224,8.0,13.0,73,0.00,,,0.00,,2013-02-12 20:31:00,
2013-02-12 13:41:00,22.0,15.0,-100.00,SW,224,8.0,13.0,73,0.00,,,0.00,,2013-02-12 20:41:00,
2013-02-12 13:51:00,22.0,15.0,-100.00,SW,224,8.0,13.0,73,0.00,,,0.00,,2013-02-12 20:51:00,
2013-02-12 14:21:00,23.0,15.0,-100.00,SSW,195,7.0,13.0,71,0.00,,,0.00,,2013-02-12 21:21:00,
2013-02-12 14:31:00,23.0,15.0,-100.00,SSW,195,7.0,13.0,71,0.00,,,0.00,,2013-02-12 21:31:00,
2013-02-12 14:41:00,23.0,15.0,-100.00,SSW,195,7.0,13.0,71,0.00,,,0.00,,2013-02-12 21:41:00,
2013-02-12 14:51:00,23.0,15.0,-100.00,SSW,195,7.0,13.0,71,0.00,,,0.00,,2013-02-12 21:51:00,
2013-02-12 15:21:00,23.0,15.0,-100.00,SSW,197,8.0,13.0,70,0.00,,,0.00,,2013-02-12 22:21:00,
2013-02-12 15:31:00,23.0,15.0,-100.00,SSW,197,8.0,13.0,70,0.00,,,0.00,,2013-02-12 22:31:00,
2013-02-12 15:41:00,23.0,15.0,-100.00,SSW,197,8.0,13.0,70,0.00,,,0.00,,2013-02-12 22:41:00,
2013-02-12 15:51:00,23.0,15.0,-100.00,SSW,197,8.0,13.0,70,0.00,,,0.00,,2013-02-12 22:51:00,
2013-02-12 16:11:00,22.0,15.0,-100.00,SW,217,5.0,9.0,74,0.00,,,0.00,,2013-02-12 23:11:00,
2013-02-12 16:21:00,22.0,15.0,-100.00,SW,217,5.0,9.0,74,0.00,,,0.00,,2013-02-12 23:21:00,
2013-02-12 16:31:00,22.0,15.0,-100.00,SW,217,5.0,9.0,74,0.00,,,0.00,,2013-02-12 23:31:00,
2013-02-12 16:41:00,22.0,15.0,-100.00,SW,217,5.0,9.0,74,0.00,,,0.00,,2013-02-12 23:41:00,
2013-02-12 16:52:00,22.0,15.0,-100.00,SW,217,5.0,9.0,74,0.00,,,0.00,,2013-02-12 23:52:00,
2013-02-12 17:21:00,20.0,14.0,-100.00,SSW,211,6.0,9.0,77,0.00,,,0.00,,2013-02-13 00:21:00,
2013-02-12 17:32:00,20.0,14.0,-100.00,SSW,211,6.0,9.0,77,0.00,,,0.00,,2013-02-13 00:32:00,
2013-02-12 17:42:00,20.0,14.0,-100.00,SSW,211,6.0,9.0,77,0.00,,,0.00,,2013-02-13 00:42:00,
2013-02-12 17:51:00,20.0,14.0,-100.00,SSW,211,6.0,9.0,77,0.00,,,0.00,,2013-02-13 00:51:00,
2013-02-12 18:42:00,20.0,16.0,-100.00,SW,214,4.0,6.0,85,0.01,,,0.01,,2013-02-13 01:42:00,
2013-02-12 18:51:00,20.0,16.0,-100.00,SW,214,4.0,6.0,85,0.01,,,0.01,,2013-02-13 01:51:00,
2013-02-12 19:21:00,18.0,15.0,-100.00,SW,235,4.0,6.0,86,0.00,,,0.01,,2013-02-13 02:21:00,
2013-02-12 19:31:00,18.0,15.0,-100.00,SW,235,4.0,6.0,86,0.00,,,0.01,,2013-02-13 02:31:00,
2013-02-12 19:41:00,18.0,15.0,-100.00,SW,235,4.0,6.0,86,0.00,,,0.01,,2013-02-13 02:41:00,
2013-02-12 19:52:00,18.0,15.0,-100.00,SW,235,4.0,6.0,86,0.00,,,0.01,,2013-02-13 02:52:00,
2013-02-12 20:11:00,18.0,14.0,-100.00,South,184,5.0,6.0,87,0.00,,,0.01,,2013-02-13 03:11:00,
2013-02-12 20:21:00,18.0,14.0,-100.00,South,184,5.0,6.0,87,0.00,,,0.01,,2013-02-13 03:21:00,
2013-02-12 20:32:00,18.0,14.0,-100.00,South,184,5.0,6.0,87,0.00,,,0.01,,2013-02-13 03:32:00,
2013-02-12 20:41:00,18.0,14.0,-100.00,South,184,5.0,6.0,87,0.00,,,0.01,,2013-02-13 03:41:00,
2013-02-12 20:51:00,18.0,14.0,-100.00,South,184,5.0,6.0,87,0.00,,,0.01,,2013-02-13 03:51:00,
2013-02-12 21:11:00,17.0,15.0,-100.00,South,191,5.0,6.0,89,0.00,,,0.01,,2013-02-13 04:11:00,
2013-02-12 21:21:00,17.0,15.0,-100.00,South,191,5.0,6.0,89,0.00,,,0.01,,2013-02-13 04:21:00,
2013-02-12 21:31:00,17.0,15.0,-100.00,South,191,5.0,6.0,89,0.00,,,0.01,,2013-02-13 04:31:00,
2013-02-12 21:41:00,17.0,15.0,-100.00,South,191,5.0,6.0,89,0.00,,,0.01,,2013-02-13 04:41:00,
2013-02-12 21:51:00,17.0,15.0,-100.00,South,191,5.0,6.0,89,0.00,,,0.01,,2013-02-13 04:51:00,
2013-02-12 22:11:00,17.0,14.0,-100.00,SSW,202,2.0,4.0,90,0.00,,,0.01,,2013-02-13 05:11:00,
2013-02-12 22:22:00,17.0,14.0,-100.00,SSW,202,2.0,4.0,90,0.00,,,0.01,,2013-02-13 05:22:00,
2013-02-12 22:31:00,17.0,14.0,-100.00,SSW,202,2.0,4.0,90,0.00,,,0.01,,2013-02-13 05:31:00,
2013-02-12 22:41:00,17.0,14.0,-100.00,SSW,202,2.0,4.0,90,0.00,,,0.01,,2013-02-13 05:41:00,
2013-02-12 22:51:00,17.0,14.0,-100.00,SSW,202,2.0,4.0,90,0.00,,,0.01,,2013-02-13 05:51:00,
2013-02-12 23:11:00,17.0,14.0,-100.00,SW,220,2.0,4.0,90,0.00,,,0.01,,2013-02-13 06:11:00,
2013-02-12 23:21:00,17.0,14.0,-100.00,SW,220,2.0,4.0,90,0.00,,,0.01,,2013-02-13 06:21:00,
2013-02-12 23:31:00,17.0,14.0,-100.00,SW,220,2.0,4.0,90,0.00,,,0.01,,2013-02-13 06:31:00,
2013-02-12 23:41:00,17.0,14.0,-100.00,SW,220,2.0,4.0,90,0.00,,,0.01,,2013-02-13 06:41:00,
2013-02-12 23:51:00,17.0,14.0,-100.00,SW,220,2.0,4.0,90,0.00,,,0.01,,2013-02-13 06:51:00,